Location: Blackwall
(51.5097°N, 0.0016°W)
Time: 02:34:40
(UTC+00:00)

CZ-4B R/B - Pass Details

Date: 15 May 2026
Orbit: 700 x 797 km, 98.9° (Epoch: 8 June)

Event Time Altitude Azimuth Distance (km) Brightness Sun altitude
Exits shadow 21:23:16 15° 164° (SSE) 1,864 4.9 -11.9°
Maximum altitude 21:27:15 87° 251° (WSW) 723 3.4 -12.3°
Drops below altitude 10° 21:32:10 10° 344° (NNW) 2,233 7.2 -12.7°
Sets 21:34:28 0° 345° (NNW) 3,174 8.2 -12.9°
